Regional Weather Roundup
Issued by NWS

Home | Current Version | Previous Version | Text Only | Print | Product List | Glossary On
Versions: 1 2 3 4 5 6 7 8 9 10 11 12 13 14 15 16 17 18 19 20 21 22 23 24 25 26 27 28 29 30 31 32 33 34 35 36 37 38 39 40 41 42 43 44 45 46 47 48 49 50
000
ASCA42 TJSJ 280011
RWRPR
PUERTO RICO/U.S. VIRGIN ISLANDS HOURLY WEATHER ROUNDUP
NATIONAL WEATHER SERVICE SAN JUAN PR
800 PM AST SAT DEC 27 2014

PRZ001-004-280100-
PUERTO RICO

CITY           SKY/WX    TMP DP  RH WIND       PRES   REMARKS
SAN JUAN LMM   PTCLDY    77  72  83 CALM      30.10R
AGUADILLA      CLOUDY    72  70  94 E5        30.11S
CEIBA          PTCLDY    77  70  78 NE7       30.11R
$$

PRZ006-007-280100-
U.S. VIRGIN ISLANDS

CITY           SKY/WX    TMP DP  RH WIND       PRES   REMARKS
$$

HOURLY WEATHER ROUNDUP FOR THE NEWS MEDIA

CITY           SKY/WX    TMP DP  RH WIND       PRES   REMARKS
MIAMI          CLOUDY    75  68  78 E6        30.17R
ORLANDO        MOCLDY    74  69  85 E8        30.18R
NEW YORK       PTCLDY    45  38  76 S7        30.19R
NEWARK         MOCLDY    48  35  60 S3        30.17S
CHICAGO        CLOUDY    34  26  72 W13       30.07R WCI  25
HARTFORD       CLEAR     42  36  79 SW5       30.15S
BOSTON         PTCLDY    46  34  62 SW8       30.13F
DALLAS         CLOUDY    38  30  73 N20       30.26R WCI  28
PHILADELPHIA   MOCLDY    48  31  51 S7        30.18F


USA.gov is the U.S. government's official web portal to all federal, state and local government web resources and services.